Regional Weather Roundup
Issued by NWS

Home | Current Version | Previous Version | Graphics & Text | Print | Product List | Glossary On
Versions: 1 2 3 4 5 6 7 8 9 10 11 12 13 14 15 16 17 18 19 20 21 22 23 24 25 26 27 28 29 30 31 32 33 34 35 36 37 38 39 40 41 42 43 44 45 46 47 48 49 50
000
ASUS43 KMKX 290121
RWRWI

WISCONSIN REGIONAL WEATHER ROUNDUP
NATIONAL WEATHER SERVICE MILWAUKEE/SULLIVAN WI
800 PM CDT MON JUL 28 2014

NOTE: "FAIR" INDICATES FEW OR NO CLOUDS BELOW 12,000 FEET WITH NO
SIGNIFICANT WEATHER AND/OR OBSTRUCTIONS TO VISIBILITY.

WIZ001-002-006>008-014>016-023>028-290200-
NORTHWEST WISCONSIN

CITY           SKY/WX    TMP DP  RH WIND       PRES   REMARKS
SUPERIOR ARPT  PTCLDY    70  57  63 NW6       30.08S
ASHLAND        PTCLDY    66  58  75 SW5       30.07F
HAYWARD        MOCLDY    70  53  54 CALM      30.10S
SIREN          CLEAR     69  54  58 W3        30.11F
RICE LAKE      CLEAR     69  53  57 W3        30.13S
LADYSMITH      CLEAR     68  55  64 W7        30.12S
EAU CLAIRE     CLEAR     70  53  54 NW5       30.10F
MENOMONIE      CLEAR     70  53  53 W5        30.11F
NEW RICHMOND   CLEAR     68  55  62 CALM      30.13F
OSCEOLA        CLEAR     70  55  58 CALM      30.15S
$$

WIZ003>005-009-010-017-018-290200-
NORTH CENTRAL WISCONSIN

CITY           SKY/WX    TMP DP  RH WIND       PRES   REMARKS
WOODRUFF       CLOUDY    65  53  67 CALM      30.08S
RHINELANDER    PTCLDY    63  55  75 W5        30.09S
EAGLE RIVER    RAIN      63  52  67 NW6       30.08R
LAND O LAKES   CLOUDY    62  54  76 NW3       30.08S
PHILLIPS       CLEAR     65  56  74 CALM      30.09S
TOMAHAWK       CLEAR     61  55  81 CALM      30.09S
MEDFORD        CLOUDY    64  55  71 W3        30.10F
MERRILL        PTCLDY    64  56  74 W3        30.09S
$$

WIZ029-030-035-036-043>047-290200-
CENTRAL WISCONSIN

CITY           SKY/WX    TMP DP  RH WIND       PRES   REMARKS
WAUSAU         CLOUDY    65  55  70 W9        30.06F
MOSINEE        CLOUDY    66  54  63 NW6       30.10S
MARSHFIELD     CLOUDY    67  55  65 NW5       30.09F
STEVENS POINT  CLOUDY    67  52  59 CALM      30.09S
WAUPACA        CLOUDY    71  53  52 CALM      30.06S
WAUTOMA        CLOUDY    71  53  52 NW5       30.07F
WISC RAPIDS    CLOUDY    68  55  63 NW5       30.10S
CAMP DOUGLAS   MOCLDY    64  57  77 NW5       30.09F
$$

WIZ011>013-019>022-031-037>040-048>050-290200-
NORTHEAST WISCONSIN

CITY           SKY/WX    TMP DP  RH WIND       PRES   REMARKS
ANTIGO         MOCLDY    63  53  70 NW7       30.08S
STURGEON BAY   CLOUDY    59  48  67 S3        30.03F
GREEN BAY      MOCLDY    66  56  70 W5        30.04S
MANITOWOC      MOCLDY    60  49  66 SW3       30.05S
APPLETON       MOCLDY    66  52  59 NW6       30.06S
CLINTONVILLE   MOCLDY    68  52  56 W5        30.05F
OSHKOSH        CLOUDY    69  52  54 N7        30.05S
$$

WIZ032>034-041-042-053>061-290200-
SOUTHWEST WISCONSIN

CITY           SKY/WX    TMP DP  RH WIND       PRES   REMARKS
LA CROSSE      CLEAR     71  53  52 NW8       30.10F
SPARTA         CLEAR     67  53  59 CALM      30.11F
VIROQUA        FAIR      64  54  68 NW3       30.12F
BOSCOBEL       CLEAR     70  54  56 CALM      30.10F
PRAIRIE DU CHI CLEAR     69  49  48 W5        30.10F
PLATTEVILLE    FAIR      66  53  62 NW3       30.11F
$$

WIZ056-057-062-063-064-067-068-290200-
SOUTH CENTRAL WISCONSIN

CITY           SKY/WX    TMP DP  RH WIND       PRES   REMARKS
BARABOO/DELLS  PTCLDY    67  51  55 NW5       30.09S
LONE ROCK      CLEAR     70  54  56 NW6       30.09F
WATERTOWN      CLOUDY    69  53  58 W5        30.05F
MADISON        MOCLDY    70  51  51 NW5       30.07F
MIDDLETON      FAIR      66  52  60 W7        30.08F
MONROE         CLEAR     66  54  63 W7        30.09F
JANESVILLE     PTCLDY    70  52  52 NW7       30.07F
$$

WIZ051-052-058>065-066-070>072-290200-
SOUTHEAST WISCONSIN

CITY           SKY/WX    TMP DP  RH WIND       PRES   REMARKS
MILWAUKEE      MOCLDY    61  48  62 S5        30.06F
WAUKESHA       MOCLDY    66  52  59 NW7       30.06F
MILWAUKEE/TIMM PTCLDY    63  48  59 SE3       30.06S
RACINE         MOCLDY    61  48  62 CALM      30.07F
BURLINGTON     PTCLDY    64  53  68 W3        30.05F
KENOSHA        MOCLDY    62  52  69 S6        30.06F
FOND DU LAC    CLOUDY    69  51  52 N6        30.05S
SHEBOYGAN      CLOUDY    61  51  70 SW6       30.05F
WEST BEND      CLOUDY    61  52  72 CALM      30.05S
JUNEAU         CLOUDY    67  48  50 CALM      30.07S
$$

LSZ147-162-290200-
LAKE SUPERIOR

STATION/POSITION TIME  TEMP    WIND        PRES    WAVE
                       AIR SEA DIR/SP/G            HT/PER
                 (UTC) (F)     (DEG/KT/KT) (MB)    (FT/S)
W MID LAKE BUOY  0050   51 44  240/  8/ 10 1017.0F   0
PORT WING        0000   69     260/ 10/ 13 1018.3F
SAXON HARBOR     0000          240/  3/  5 1017.9F
$$

LMZ867-665-643>646-290200-
LAKE MICHIGAN

STATION/POSITION TIME  TEMP    WIND        PRES    WAVE
                       AIR SEA DIR/SP/G            HT/PER
                 (UTC) (F)     (DEG/KT/KT) (MB)    (FT/S)
N MID LAKE BUOY  0050   56 54  240/ 10/ 12 1015.6F   1/ 3
NORTHPORT PIER   0000   67     220/  1/  2 1016.3F
SISTER BAY       0010   67     240/  5/  6   N/A
KEWAUNEE LAKESHO 0100   54     170/  4/  5 1017.7F
SHEBOYGAN LAKESH 0100   60     170/  5/  6 1017.9R
PORT WASHINGTON  0040   62     190/  3/  5 1018.3S
ATWATER BUOY     0100   61     170/  6     1018.5F
MILWAUKEE LAKESH 0100   60     140/  6/  6   N/A
S MID LAKE BUOY  0050   60 60   20/  6/  8 1017.7F   4/ 6
KENOSHA   LAKESH 0100   61     150/  3/  3 1017.6F
$$

TC  - TEMPERATURE IN CELSIUS
VSB - VISIBILITY IN STATUTE MILES
WCI - WIND CHILL INDEX
HX  - HEAT INDEX




USA.gov is the U.S. government's official web portal to all federal, state and local government web resources and services.